SCP
0 0 0 0 0 0 0 0 0 0 0 0 0 0 0 0 0 0 0 0 0 0 0 0 0 0 0 0 0 0 0 0 0 0 0 0 0 0 0 0 0 0 0 0 0 0 0 0 0
0 0 0 0 0 0 0 0 0 0 0 0 0 0 0 0 0 0 0 0 0 0 0 0 0 0 0 0 0 0 0 0 0 0 0 0 0 0 0 0 0 0 0 0 0 0 0 0 0
0 0 0 0 0 0 0 0 0 0 0 0 0 0 0 0 0 0 0 0 0 0 0 0 0 0 0 0 0 0 0 0 0 0 0 0 0 0 0 0 0 0 0 0 0 0 0 0 0
0 0 0 0 0 0 0 0 0 0 0 0 0 0 0 0 0 0 0 0 0 0 0 0 0 0 0 0 0 0 0 0 0 0 0 0 0 0 0 0 0 0 0 0 0 0 0 0 0
0 0 0 0 0 0 0 0 0 0 0 0 0 0 0 0 0 0 0 0 0 0 0 0 0 0 0 0 0 0 0 0 0 0 0 0 0 0 0 0 0 0 0 0 0 0 0 0 0
0 0 0 0 0 0 0 0 0 0 0 0 0 0 0 0 0 0 0 0 0 0 0 0 0 0 0 0 0 0 0 0 0 0 0 0 0 0 0 0 0 0 0 0 0 0 0 0 0
0 0 0 0 0 0 0 0 0 0 0 0 0 0 0 0 0 0 0 0 0 0 0 0 0 0 0 0 0 0 0 0 0 0 0 0 0 0 0 0 0 0 0 0 0 0 0 0 0
0 0 0 0 0 0 0 0 0 0 0 0 0 0 0 0 0 0 0 0 0 0 0 0 0 0 0 0 0 0 0 0 0 0 0 0 0 0 0 0 0 0 0 0 0 0 0 0 0
0 0 0 0 0 0 0 0 0 0 0 0 0 0 0 0 0 0 0 0 0 0 0 0 0 0 0 0 0 0 0 0 0 0 0 0 0 0 0 0 0 0 0 0 0 0 0 0 0
0 0 0 0 0 0 0 0 0 0 0 0 0 0 0 1 1 1 0 0 0 0 0 0 0 0 0 0 0 0 0 0 0 0 0 0 0 0 0 0 0 0 0 0 0 0 0 0 0
0 0 0 0 0 0 0 0 0 0 0 0 0 0 1 1 1 0 0 0 0 0 0 0 0 0 0 0 0 0 0 0 0 0 0 0 -0 0 0 0 0 0 0 0 0 0 0 0 0
0 0 0 0 0 0 0 0 0 0 0 0 0 0 1 1 1 0 0 0 0 0 0 0 0 0 0 0 0 0 0 0 0 0 0 0 0 0 0 0 0 0 0 0 0 0 0 0 0
0 0 0 0 0 0 0 0 0 0 0 0 0 0 0 0 0 0 0 0 0 0 0 0 0 0 0 0 0 0 0 0 0 0 0 0 0 0 0 0 0 0 0 0 0 0 0 0 0
0 0 0 0 0 0 0 0 0 0 0 0 0 0 0 0 0 0 0 0 0 0 0 0 0 0 0 0 0 0 0 0 0 0 0 0 0 0 0 0 0 0 0 0 0 0 0 0 0
0 0 0 0 0 0 0 0 0 0 0 0 0 0 0 0 0 0 0 0 0 0 0 0 0 0 0 0 0 0 0 0 0 0 0 0 0 0 0 0 0 0 0 0 0 0 0 0 0
0 0 0 0 0 0 0 0 0 0 0 0 0 0 0 0 0 0 0 0 0 0 0 0 0 0 0 0 0 0 0 0 0 0 0 0 0 0 0 0 0 0 0 0 0 0 0 0 0
0 0 0 0 0 0 0 0 0 0 0 0 0 0 0 0 0 0 0 0 0 0 0 0 0 0 0 0 0 0 0 0 0 0 0 0 0 0 0 0 0 0 0 0 0 0 0 0 0
0 0 0 0 0 0 0 0 0 0 0 0 0 0 0 0 0 0 0 0 0 0 0 0 0 0 0 0 0 0 0 0 0 0 0 0 0 0 0 0 0 0 0 0 0 0 0 0 0
0 0 0 0 0 0 0 0 0 0 0 0 0 0 0 0 0 0 0 0 0 0 0 0 0 0 0 0 0 0 0 0 0 0 0 0 0 0 0 0 0 0 0 0 0 0 0 0 0
0 0 0 0 0 0 0 0 0 0 0 0 0 0 0 0 0 0 0 0 0 0 0 0 0 0 0 0 0 0 0 0 0 0 0 0 0 0 0 0 0 0 0 0 0 0 0 0 0
0 0 0 0 0 0 0 0 0 0 0 0 0 0 0 0 0 0 0 0 0 0 0 0 0 0 0 0 0 0 0 0 0 0 0 0 0 0 0 0 0 0 0 0 0 0 0 0 0
0 0 0 0 0 0 0 0 0 0 0 0 0 0 0 0 0 0 0 0 0 0 0 0 0 0 0 0 0 0 0 0 0 0 0 0 0 0 0 0 0 0 0 0 0 0 0 0 0
0 0 0 0 0 0 0 0 0 0 0 0 0 0 0 0 0 0 0 0 0 0 0 0 0 0 0 0 0 0 0 0 0 0 0 0 0 0 0 0 0 0 0 0 0 0 0 0 0
0 0 0 0 0 0 0 0 0 0 0 0 0 0 0 0 0 0 0 0 0 0 0 0 0 0 0 0 0 0 0 0 0 0 0 0 0 0 0 0 0 0 0 0 0 0 0 0 0
0 0 0 0 0 0 0 0 0 0 0 0 0 0 0 0 0 0 0 0 0 0 0 0 0 0 0 0 0 0 0 0 0 0 0 0 0 0 0 0 0 0 0 0 0 0 0 0 0
0 0 0 0 0 0 0 0 0 0 0 0 0 0 0 0 0 0 0 0 0 0 0 0 0 0 0 0 0 0 0 0 0 0 0 0 0 0 0 0 0 0 0 0 0 0 0 0 0
0 0 0 0 0 0 0 0 0 0 0 0 0 0 0 0 0 0 0 0 0 0 0 0 0 0 0 0 0 0 0 0 0 0 0 0 0 0 0 0 0 0 0 0 0 0 0 0 0
0 0 0 0 0 0 0 0 0 0 0 0 0 0 0 0 0 0 0 0 0 0 0 0 0 0 0 0 0 0 0 0 0 0 0 0 0 0 0 0 0 0 0 0 0 0 0 0 0
0 0 0 0 0 0 0 0 0 0 0 0 0 0 0 0 0 0 0 0 0 0 0 0 0 0 0 0 0 0 0 0 0 0 0 0 0 0 0 0 0 0 0 0 0 0 0 0 0
0 0 0 0 0 0 0 0 0 0 0 0 0 0 0 0 0 0 0 0 0 0 0 0 0 0 0 0 0 0 0 0 0 0 0 0 0 0 0 0 0 0 0 0 0 0 0 0 0
Wind_Speed
5 4 3 2 5 5 2 3 1 1 1 1 2 3 4 3 3 2 1 7 8 7 5 8 10 9 8 8 8 8 8 8 8 7 7 7 7 6 6 6 6 6 5 5 6 6 6 6 6
3 3 2 4 5 3 3 3 0 0 1 2 3 3 4 2 2 4 4 6 9 8 5 7 10 9 9 8 8 8 8 8 7 7 7 6 6 6 5 5 5 5 5 5 5 5 5 5 5
3 1 3 5 3 3 3 2 1 0 1 2 2 3 3 2 3 4 4 9 8 6 5 6 11 10 9 8 8 8 8 7 7 6 6 5 5 5 5 5 5 5 5 5 5 5 5 4 4
2 3 5 5 1 3 4 2 2 2 2 3 3 3 2 2 3 5 9 10 8 6 4 6 11 9 9 8 7 7 7 7 6 6 5 5 5 4 4 4 4 4 5 5 4 4 4 4 4
3 4 5 3 2 3 3 2 2 2 1 2 3 3 2 4 6 10 10 10 8 6 4 4 10 9 8 7 7 6 6 5 5 5 5 5 4 4 3 3 3 4 4 4 4 4 4 3 4
4 5 5 0 3 3 2 2 2 3 2 2 3 3 1 2 6 8 8 7 7 6 4 4 8 9 8 7 6 5 5 4 4 4 4 4 4 4 3 3 4 4 4 4 4 3 3 3 3
4 4 3 2 2 3 2 1 3 3 2 2 3 3 1 3 4 7 7 6 5 5 4 3 3 5 7 6 6 5 4 3 3 3 3 3 4 3 3 3 3 3 3 3 3 2 2 2 2
4 5 2 1 2 3 2 1 1 4 3 3 4 6 5 5 7 7 7 6 5 4 3 2 2 2 2 2 5 4 3 3 2 2 3 3 3 3 3 2 2 2 2 2 2 2 1 1 1
4 5 2 4 4 4 1 1 1 2 4 2 2 3 6 12 11 9 6 4 4 4 2 2 2 2 2 1 3 3 3 2 2 1 2 2 2 2 2 2 1 1 1 1 1 1 1 2 1
4 3 6 5 5 3 2 2 3 3 2 1 2 5 11 13 12 10 9 8 6 5 4 3 3 2 2 2 1 1 1 1 1 1 1 1 1 1 1 2 2 2 1 1 1 1 2 2 2
4 6 5 4 5 3 2 2 2 5 3 6 7 11 13 12 10 10 9 8 7 6 5 4 3 2 2 1 1 1 0 1 1 1 1 1 1 1 2 1 2 3 2 2 2 2 2 2 2
3 5 4 4 2 2 3 3 2 4 5 4 9 15 14 13 11 10 9 7 5 5 5 3 3 3 2 1 1 1 1 0 0 1 1 0 0 1 1 1 1 1 1 1 1 1 2 2 2
3 3 2 3 2 2 2 2 2 1 0 6 10 12 12 11 8 6 5 5 4 4 4 4 4 3 2 1 1 1 1 1 1 0 1 0 0 1 1 1 1 1 1 1 1 1 2 2 2
3 2 4 3 1 0 3 0 2 1 4 8 10 9 9 9 8 6 5 5 5 5 4 3 4 3 3 2 1 1 1 1 0 1 1 1 1 0 0 1 1 1 1 0 0 1 1 1 1
1 2 5 2 0 0 4 2 1 2 6 7 8 8 7 6 6 7 7 6 5 5 4 4 4 3 3 2 2 1 1 1 0 1 1 1 1 1 1 0 0 0 0 1 1 2 2 1 2
3 3 2 5 1 1 5 2 3 4 7 7 6 6 6 5 5 5 6 5 5 4 4 4 4 4 3 2 2 1 1 1 0 0 1 1 0 1 1 0 0 0 0 1 1 1 1 1 1
4 1 1 5 2 1 3 3 2 3 7 6 6 6 6 5 4 4 5 6 6 5 5 4 3 4 3 2 2 1 1 0 0 0 0 1 0 0 1 0 0 0 1 1 1 1 1 1 1
2 1 1 3 2 2 1 2 2 3 5 6 5 4 5 5 5 5 5 5 5 5 5 4 4 3 3 2 2 1 1 1 1 1 1 0 0 0 1 0 0 1 1 1 1 1 1 1 0
3 2 2 4 2 1 1 2 3 3 3 3 3 4 4 4 4 4 5 6 5 4 4 4 4 3 3 2 2 1 1 1 1 1 1 1 1 0 1 0 1 1 1 1 1 1 1 1 1
2 1 3 4 1 2 1 1 2 3 6 6 7 6 5 3 3 4 5 5 6 5 5 4 4 4 3 2 2 1 1 0 1 1 1 1 1 0 1 1 0 0 0 0 0 1 1 0 1
3 4 4 3 3 3 2 3 2 1 0 1 2 3 4 5 5 4 4 5 5 5 6 5 4 3 3 2 2 2 2 1 1 1 1 2 1 1 0 1 1 1 1 1 1 1 2 1 0
4 6 6 3 2 2 1 1 4 1 1 2 3 3 4 5 5 5 4 4 5 5 4 4 4 4 3 3 3 3 2 2 2 1 2 2 1 1 1 1 1 1 1 1 1 1 1 2 1
6 1 3 2 3 1 2 2 5 1 2 5 5 5 6 5 5 5 5 5 5 5 4 4 4 3 3 3 4 3 2 2 1 1 1 2 2 1 1 1 1 1 1 1 1 1 1 1 2
3 5 6 5 5 1 2 3 5 3 5 5 5 5 5 3 4 4 3 3 3 3 3 4 4 3 3 3 3 3 3 2 1 1 1 2 2 2 1 1 1 1 1 2 2 2 1 1 1
4 6 4 4 4 4 2 2 6 5 4 5 5 5 4 3 3 3 3 3 3 3 3 3 4 3 3 3 3 3 3 3 3 2 2 1 1 2 2 1 1 1 1 1 1 1 1 1 1
3 7 8 5 4 4 2 3 6 3 3 2 2 2 2 3 3 4 4 3 3 3 3 3 4 3 3 3 3 2 3 2 2 2 2 2 2 2 2 1 1 1 1 1 1 1 1 1 1
4 2 5 7 3 0 3 5 6 1 1 1 1 2 3 3 3 3 3 3 3 3 3 3 3 3 2 2 2 2 1 2 2 2 2 2 2 1 1 1 1 1 1 1 2 1 1 1 1
4 7 5 6 5 2 3 4 4 4 3 1 1 2 2 2 2 2 2 2 2 2 2 2 3 3 2 1 2 2 2 2 2 1 2 1 1 1 0 0 1 1 1 1 2 1 1 1 1
3 4 5 5 4 6 3 6 5 5 4 4 3 2 3 3 3 2 2 2 2 2 2 2 1 1 1 1 1 1 1 1 1 1 2 1 1 1 1 1 1 1 1 2 2 2 2 2 1
3 5 6 5 2 3 4 7 4 3 3 3 3 2 2 2 2 2 2 2 2 1 1 1 1 1 1 1 1 2 1 1 1 1 1 1 1 1 1 1 1 1 1 2 3 3 2 2 2
Wind_Direction
147 129 123 92 56 47 342 294 265 345 2 19 92 104 120 131 160 177 136 137 134 141 153 155 150 145 135 127 122 118 116 115 113 112 111 112 111 109 106 104 105 113 121 124 129 132 128 127 127
136 140 86 63 76 49 299 287 323 247 165 118 76 75 80 64 78 115 132 145 139 143 147 151 150 144 137 129 124 121 119 116 114 114 113 112 109 108 109 106 103 106 114 120 123 127 131 130 129
158 149 85 71 91 170 244 262 216 140 128 92 69 49 90 134 139 156 159 142 133 138 145 158 149 144 137 131 128 126 121 118 117 116 115 112 108 107 109 108 105 103 106 114 122 128 129 130 128
116 55 55 68 83 229 223 239 174 127 26 50 102 63 52 54 153 150 138 137 133 138 147 161 149 146 139 135 131 126 122 117 115 113 112 111 105 103 103 103 109 107 107 112 119 128 128 129 129
67 76 60 37 299 275 246 214 166 144 78 59 100 95 26 14 98 124 136 141 142 145 151 163 151 149 144 138 133 129 124 118 115 111 105 106 103 99 95 94 115 125 117 112 110 104 113 123 130
59 67 79 12 292 285 265 179 135 126 119 105 103 105 44 89 114 134 137 138 143 146 148 155 156 152 151 146 139 133 127 121 116 113 106 101 101 92 84 71 86 106 105 105 102 97 95 107 126
102 96 137 185 264 289 257 148 151 151 145 176 141 118 119 128 133 132 126 125 127 132 135 146 154 158 158 154 146 142 138 130 120 112 106 98 89 90 81 75 66 75 80 89 85 80 80 83 97
126 103 106 206 204 251 238 107 171 158 174 142 137 150 181 169 138 121 113 111 117 123 135 143 139 133 141 154 161 159 156 149 142 123 113 102 84 74 73 69 70 60 51 60 63 55 56 68 76
94 80 195 214 198 234 212 150 229 131 124 140 160 165 156 138 135 126 122 120 135 148 149 150 145 136 132 153 179 165 158 155 145 127 118 87 35 17 23 38 48 44 28 16 18 30 31 46 53
99 144 224 217 199 209 232 205 180 129 136 156 88 96 125 138 146 150 157 163 171 176 179 174 171 160 155 181 146 99 115 92 67 43 37 36 26 354 7 0 10 16 6 344 356 15 31 33 31
155 195 234 245 219 196 196 218 149 142 207 211 175 151 147 150 157 164 170 175 182 182 182 182 179 167 166 173 144 105 80 58 36 27 34 31 19 353 357 0 355 360 2 14 24 23 34 46 49
184 239 228 248 207 179 180 174 146 183 232 197 159 153 155 162 170 174 174 174 172 177 186 181 172 168 174 163 154 138 133 134 299 330 1 46 355 340 336 353 356 8 7 28 44 52 38 44 48
215 264 263 247 256 203 158 164 168 259 359 121 135 145 156 164 166 166 162 156 163 180 185 183 175 173 169 159 193 167 179 198 220 257 284 217 235 299 319 334 2 5 14 35 60 71 53 46 45
239 270 297 302 300 168 123 102 111 274 113 119 134 147 156 161 158 151 154 164 177 184 181 170 162 161 151 159 177 177 185 201 229 259 268 237 209 228 280 328 4 360 355 22 94 97 78 51 47
295 345 340 332 250 159 100 36 244 168 124 126 138 147 146 151 154 166 172 170 172 176 173 166 159 149 153 164 171 155 160 151 170 267 271 240 196 196 194 179 331 314 25 87 90 77 73 65 54
35 45 342 311 14 76 108 235 282 144 136 140 148 151 150 160 176 176 168 163 162 160 162 167 166 157 169 171 163 141 125 130 174 318 313 301 244 185 180 169 248 249 97 97 99 89 83 64 53
29 47 287 313 357 90 120 221 256 158 143 149 157 161 160 164 180 180 174 171 168 167 165 162 158 159 166 152 135 112 96 88 25 31 342 307 300 195 170 199 230 137 113 92 126 99 121 101 53
224 216 284 288 321 49 133 222 228 168 153 163 160 162 163 178 194 182 172 167 163 161 161 161 162 156 144 124 100 76 54 9 12 0 308 319 326 59 139 179 60 98 99 83 106 104 93 107 99
168 177 258 269 274 100 212 227 226 184 164 163 167 181 182 188 182 164 167 161 155 155 158 167 167 162 145 137 141 141 199 278 315 297 299 312 332 31 97 68 46 78 124 177 168 140 117 116 122
169 209 258 290 336 144 176 294 251 193 191 185 187 192 195 180 162 165 163 162 167 173 174 174 177 173 168 170 167 165 160 214 251 298 328 322 317 279 156 122 144 152 135 106 177 159 154 161 118
211 198 217 232 352 35 92 355 335 301 149 139 190 195 198 190 185 183 174 177 174 180 184 183 179 172 167 145 111 86 64 36 5 321 306 300 293 277 198 170 168 184 187 205 227 207 179 187 170
243 222 196 184 115 298 80 261 289 276 278 237 229 218 213 200 189 186 179 179 187 192 182 178 169 167 168 155 149 153 170 201 228 242 260 289 293 274 232 188 179 182 193 207 235 199 198 178 200
212 194 149 149 141 69 17 133 288 349 269 250 233 224 221 202 185 187 189 187 187 181 174 172 160 167 167 166 166 165 188 217 247 281 293 296 300 290 266 192 181 183 200 206 218 204 200 186 182
153 72 58 53 74 55 262 156 274 247 232 239 226 218 221 199 182 181 172 159 164 162 159 160 156 164 160 163 167 174 186 192 198 264 281 291 295 293 290 229 191 197 214 208 207 202 187 181 159
91 91 43 5 16 253 275 170 246 249 242 229 225 220 206 171 165 160 146 152 158 162 164 161 159 166 167 170 182 192 195 193 203 221 230 256 281 279 280 258 206 202 217 199 175 164 176 168 154
172 140 155 185 210 269 329 234 254 260 261 250 226 201 162 158 164 164 163 161 164 169 166 168 165 165 178 181 195 200 198 196 213 216 219 225 239 252 257 225 200 194 186 161 136 137 175 136 154
134 151 157 129 127 80 287 291 302 328 355 29 118 128 155 171 166 162 158 158 158 162 164 165 165 170 193 201 197 192 197 199 209 217 220 230 237 234 236 220 196 189 179 158 145 143 153 115 123
119 137 96 111 139 217 289 277 258 274 263 239 172 173 184 165 151 145 152 148 146 159 159 148 163 185 206 202 201 197 207 222 221 203 213 225 226 212 170 172 173 162 147 148 144 143 153 125 119
85 84 93 101 138 151 218 265 232 227 215 199 209 207 200 169 160 162 162 156 139 130 148 147 154 171 213 232 212 199 210 213 199 222 228 210 192 178 176 199 163 153 154 149 141 155 148 135 114
132 143 139 141 189 160 169 261 284 232 202 183 196 198 191 157 146 137 132 129 118 120 125 126 158 187 220 231 215 216 219 197 192 228 235 186 177 178 182 172 147 150 152 155 159 168 167 163 162